CAPE
0 0 0 0 0 0 0 0 0 0 0 0 0 0 0 0 0 0 0 0 0 0 0 0 0 0 0 881 862 942 640 743 803 776 690 656 822 720 736 822 1138 1328 1504 1550 1376 1312 1394 1372 1355 815 1091 1200 1320 856 978 1071 1212 995 953 1060 1040 1344 1291 1198 1341 1292 1856 1545 1022 960 1065 982 1710 1129 1927 2401 2063 2010 2088 2124 2056 2148 2181 2219 2165 2061
0 0 0 0 0 0 0 0 0 0 0 0 0 0 0 0 0 0 0 0 0 0 0 0 0 0 0 607 869 817 753 976 812 840 609 710 781 938 1026 990 939 1190 1475 1380 1236 1103 1130 786 842 965 1046 1200 1384 1019 834 964 936 856 749 976 1070 1115 1007 1132 1699 1219 1238 1258 1346 1158 1062 1199 1318 1409 1986 1551 1481 2070 2092 1856 1830 1848 1765 1343 1360 1490
0 0 0 0 0 0 0 0 0 0 0 0 0 0 0 0 0 0 0 0 0 0 0 0 0 0 0 1024 494 924 819 790 694 822 887 794 735 1150 1036 814 774 985 1162 1476 1224 1136 890 822 948 1165 1144 1175 1151 982 807 890 1053 881 933 1062 942 1137 1062 1087 1124 1026 1048 1007 756 872 972 1277 1965 1927 1946 1927 1850 1705 1524 1346 1248 1216 1286 1204 1316 1362
0 0 0 0 0 0 0 0 0 0 0 0 0 0 0 0 0 0 0 0 0 0 0 0 0 253 1129 578 879 923 1040 597 711 1308 1120 1108 1027 1287 1473 974 1235 1079 1415 1839 1625 1500 852 1068 1164 1112 944 895 976 821 764 740 887 981 787 936 904 1116 1027 1304 1312 1110 872 806 991 1076 1436 1193 1363 1539 1636 1446 1156 1321 1191 1259 1183 1061 1051 958 962 929
0 0 0 0 0 0 0 0 0 0 0 0 0 0 0 0 0 0 0 0 0 0 0 0 0 660 1200 1067 1204 1140 1194 1611 1682 1213 1249 1347 1320 1167 1392 1366 1577 1654 1758 1976 1730 1583 1091 995 1216 1073 903 607 668 815 811 836 936 900 1015 993 1094 838 851 1016 1022 1052 1025 1278 994 1629 1755 1636 1526 1411 1392 1338 1161 961 881 856 1004 849 714 657 689 651
0 0 0 0 0 0 0 0 0 0 0 0 0 0 0 0 0 0 0 0 0 0 0 0 0 0 242 895 943 1376 1247 1780 1794 1589 1012 1114 1326 1316 1157 1171 1493 1790 1730 1391 1550 1522 1297 1124 904 1022 816 778 739 691 789 915 1004 888 812 832 675 860 942 978 1160 1170 991 1024 846 1288 1151 1468 1432 1289 1070 945 1007 1011 974 980 917 791 566 496 480 327
0 0 0 0 0 0 0 0 0 0 0 0 0 0 0 0 0 0 0 0 0 0 0 0 0 0 374 422 650 1111 908 933 2070 1596 1082 1194 1408 1372 1167 1249 1193 1304 1466 1574 1776 1595 1369 980 902 826 844 913 762 826 899 960 936 872 852 548 844 866 846 1059 953 863 1046 1217 1473 1388 1158 1263 1184 1082 981 955 922 854 772 734 686 586 376 226 213 186
0 0 0 0 0 0 0 0 0 0 0 0 0 0 0 0 0 0 0 0 0 0 0 0 0 0 83 78 317 1183 760 1100 1044 1282 1177 1140 1482 1370 1464 1482 1576 1540 1510 1583 1702 1586 1315 1050 1135 1131 1032 1033 923 889 931 837 742 729 861 803 666 746 874 966 882 937 1070 877 1105 1338 1220 1171 995 1107 947 855 603 680 644 630 447 298 132 68 22 56
0 0 0 0 0 0 0 0 0 0 0 0 0 0 0 0 0 0 0 0 0 0 0 0 0 0 0 147 90 80 539 811 533 665 1073 1141 1257 1450 1071 1550 997 1249 1443 1343 1511 1404 1264 1163 1072 1052 1079 1053 956 853 839 887 712 768 813 752 852 923 862 824 869 781 919 998 1060 1062 960 704 824 809 797 521 546 642 572 526 350 190 70 54 10 10
0 0 0 0 0 0 0 0 0 0 0 0 0 0 0 0 0 0 0 0 0 0 0 0 0 0 0 175 571 132 210 530 203 237 483 870 1310 1393 883 1255 1524 1496 1714 963 1779 1553 1183 1192 960 982 867 841 830 791 840 804 683 666 718 875 622 534 605 743 850 797 752 681 708 954 895 817 705 610 571 629 606 590 557 239 146 112 9 9 20 10
0 0 0 0 0 0 0 0 0 0 0 0 0 0 0 0 0 0 0 0 0 0 0 0 0 0 0 258 280 407 265 515 336 151 332 318 690 1046 1011 1080 1172 1982 1691 1245 1477 1239 1062 980 890 820 791 848 754 751 686 610 572 484 499 590 579 597 561 616 602 653 607 540 621 656 684 705 728 668 681 546 409 376 222 108 12 15 7 8 8 8
0 0 0 0 0 0 0 0 0 0 0 0 0 0 0 0 0 0 0 0 0 0 0 0 0 0 0 748 224 213 145 161 360 54 208 171 308 671 652 1192 1541 729 1387 1515 1349 1268 1037 881 874 838 729 738 673 631 620 596 587 477 512 442 459 495 446 453 406 366 374 330 385 406 265 306 297 255 278 242 155 95 16 7 7 4 6 6 6 7
0 0 0 0 0 0 0 0 0 0 0 0 0 0 0 0 0 0 0 0 0 0 0 0 0 0 0 0 225 368 269 206 527 419 553 462 354 823 1238 1887 1515 1115 1425 1378 1058 1090 975 834 859 784 574 625 581 637 583 506 535 479 492 332 290 265 233 322 290 203 238 224 174 130 83 28 30 6 2 11 4 4 6 6 4 6 7 4 4 4
9 0 0 0 0 0 0 0 0 0 0 0 0 0 0 0 0 0 0 0 0 0 0 0 0 0 0 0 14 375 132 195 247 551 702 616 616 1117 571 1362 1982 1303 1271 1185 1076 1054 854 961 794 674 464 592 572 505 425 441 437 393 374 311 212 217 214 176 138 29 18 5 6 6 6 7 6 7 4 4 5 5 5 5 4 6 6 5 6 8
4 0 0 0 0 0 0 0 0 0 0 0 0 0 0 0 0 0 0 0 0 0 0 0 0 0 0 0 0 29 88 75 96 718 763 566 734 818 960 1210 2337 1519 1253 988 980 1045 914 940 740 710 603 555 551 513 532 579 449 411 332 276 230 194 209 213 205 108 5 4 5 3 0 5 6 5 5 4 5 5 7 5 6 6 6 6 6 4
0 0 0 0 0 0 0 0 0 0 0 0 0 0 0 0 0 0 0 0 0 0 0 0 0 0 0 390 0 187 232 42 221 252 313 114 214 534 1058 1773 1444 1412 1295 1166 1021 979 923 920 784 844 796 504 588 569 546 543 492 419 372 326 291 217 75 81 65 3 6 6 5 4 3 3 3 3 4 3 3 4 6 5 5 3 5 5 6 5
0 0 0 0 0 0 0 0 0 0 0 0 0 0 0 0 0 0 0 0 0 0 0 0 0 57 122 400 12 90 54 116 89 138 129 108 200 1151 2254 2142 1726 1605 1256 1228 1103 1001 762 743 803 718 545 525 585 525 494 540 542 498 410 360 267 46 2 2 2 3 4 5 4 6 3 3 3 3 5 5 5 3 4 5 4 3 4 4 2 1
0 0 0 0 0 0 0 0 0 0 0 0 0 0 0 0 0 0 0 0 0 0 0 0 0 53 0 71 412 117 23 96 102 48 174 850 1191 2131 1982 2130 1820 1427 1313 1206 1182 1069 713 501 527 530 556 558 610 556 520 486 432 373 280 235 164 3 2 2 2 4 2 2 1 2 1 1 2 3 4 5 2 1 3 4 2 4 2 0 0 0
0 0 0 0 0 0 0 0 0 0 0 0 0 0 0 0 0 0 0 0 0 0 0 0 0 0 0 184 195 138 154 82 119 505 885 1209 1261 2211 2090 1779 1556 1336 1166 1140 1144 859 713 560 549 584 592 693 683 579 457 388 325 264 235 10 2 3 4 3 2 2 2 2 2 1 1 2 1 0 1 1 0 0 0 0 0 0 0 0 0 0
0 1 2 0 0 0 0 0 0 0 0 0 0 0 0 0 0 0 0 0 0 0 0 0 0 0 0 12 173 305 108 244 247 854 200 678 1550 1990 1894 1796 1479 1275 1160 1122 1151 886 788 606 515 480 656 679 556 463 377 394 359 344 323 242 1 2 3 2 2 4 3 0 0 0 0 0 0 0 0 0 2 0 0 0 0 0 1 1 0 0
0 0 0 0 0 0 0 0 0 0 0 0 0 0 0 0 0 0 0 0 0 0 0 0 0 0 0 149 262 214 102 214 264 618 877 1316 1416 1899 1655 1580 1381 1274 1220 1186 1143 946 821 608 492 534 604 531 476 424 372 332 188 102 137 208 230 204 35 2 2 0 1 4 1 2 1 2 3 0 0 0 0 0 1 0 0 0 0 0 0 0
0 1 1 0 0 0 0 0 0 0 0 0 0 0 0 0 0 0 0 0 0 0 0 0 0 0 0 450 337 241 188 180 289 576 755 1088 1383 1627 1711 1365 1323 1293 1218 1240 1151 1012 873 735 582 602 592 529 416 348 290 1 0 1 1 0 15 229 218 184 0 1 3 4 2 1 3 3 4 4 1 0 0 0 0 0 0 0 0 0 0 0
4 1 12 0 0 0 0 0 0 0 0 0 0 0 0 0 0 0 0 0 0 0 0 0 0 0 20 127 373 206 243 193 256 341 668 415 1308 1568 1493 1277 1293 1270 1224 1233 1141 877 768 717 673 658 569 486 443 413 344 313 2 1 2 0 174 170 197 237 256 2 1 2 2 3 3 2 2 2 0 0 0 0 0 0 0 0 0 0 0 0
12 5 7 0 0 0 0 0 0 0 0 0 0 0 0 0 0 0 0 0 0 0 0 0 0 195 99 101 126 302 238 137 115 241 840 1069 1269 1537 1117 1231 1217 1187 1188 1247 1097 876 861 774 683 546 472 434 410 365 342 310 268 0 0 137 246 223 150 231 271 230 2 2 2 4 4 1 0 0 0 0 0 0 0 0 0 0 0 0 0 0
0 1 0 1 0 0 0 0 0 0 0 0 0 0 0 0 0 0 0 0 0 0 0 0 0 126 901 481 1397 894 186 147 189 369 532 1232 1491 1291 1147 1156 1183 1150 1137 1185 1148 945 923 808 735 634 478 335 145 98 330 376 318 6 202 174 269 175 48 134 73 144 1 2 2 3 2 83 0 0 0 0 0 0 0 0 0 0 0 0 0 0
0 0 0 0 0 0 0 0 0 0 0 0 0 0 0 0 0 0 0 0 0 0 0 0 0 614 828 995 339 419 149 182 666 1100 1401 1713 1248 1056 1074 1031 1090 1141 1105 1136 1079 888 902 772 701 685 528 398 336 311 129 258 246 285 237 120 0 1 0 1 2 2 0 2 2 3 3 0 0 0 0 0 0 0 0 0 0 0 0 0 0 0
0 0 0 0 0 0 0 0 0 0 0 0 0 0 0 0 0 0 0 0 0 0 0 0 351 546 777 762 790 1053 785 1275 1265 1372 1487 1359 1124 1054 992 993 1054 1115 1050 1056 1037 878 889 842 796 785 598 424 428 170 152 19 329 275 122 32 5 0 0 1 28 78 0 0 0 0 0 1 0 0 0 0 0 0 0 0 0 0 0 0 0 0
0 0 0 2 0 0 0 0 0 0 0 0 0 0 0 0 0 0 0 0 0 0 0 0 354 366 536 525 710 800 973 940 438 1762 1342 1136 1063 1000 995 947 1031 1098 1041 993 947 900 885 894 848 818 653 496 302 142 81 66 256 178 18 102 152 198 1 2 0 164 138 93 0 0 2 0 0 0 0 0 0 0 0 0 0 0 0 0 0 0
0 0 0 0 0 0 0 0 0 0 0 0 0 0 0 0 0 0 0 0 0 0 0 0 103 63 342 198 582 858 1155 1239 1505 1476 1068 1002 986 987 888 896 1012 1079 1035 994 967 943 1002 899 882 748 602 502 335 292 164 89 312 214 78 212 366 267 169 1 0 0 93 0 0 0 0 0 0 0 0 0 0 0 0 0 0 0 0 0 0 0
0 0 0 0 3 0 0 0 1 0 0 0 0 0 0 0 0 0 0 0 0 0 0 2 4 0 21 410 388 536 940 1184 1237 1029 872 875 977 961 898 892 973 970 974 1029 1083 1127 1093 938 782 760 716 514 384 450 391 290 318 98 241 321 271 318 166 56 68 136 175 74 0 0 0 0 0 0 0 0 0 0 0 0 0 0 0 0 0 0
0 0 0 2 0 3 8 3 0 1 0 0 0 0 0 0 0 0 0 0 0 0 0 0 0 0 9 296 725 771 854 1128 1119 898 764 894 888 913 892 993 961 943 914 998 1033 1056 1024 960 889 812 541 498 523 476 431 403 374 178 264 343 306 198 198 149 194 198 165 94 0 0 0 0 0 0 0 0 0 0 0 0 0 0 0 0 0 0
0 0 0 10 4 18 9 2 1 9 1 0 0 0 0 0 0 0 0 0 0 0 0 0 0 0 0 254 371 474 1089 1332 1056 803 718 568 628 777 867 896 941 918 852 872 902 894 904 906 841 715 501 506 244 557 540 501 433 260 338 312 200 231 199 154 168 193 180 0 0 38 12 0 0 0 0 0 0 0 0 0 0 0 0 0 0 0
0 0 0 0 0 9 18 7 25 19 8 0 0 0 0 0 0 0 0 0 0 0 0 0 0 0 42 32 476 513 1231 1474 1054 645 769 544 426 461 616 776 818 842 846 762 762 850 874 855 776 652 317 590 555 495 562 547 415 315 365 369 305 237 146 30 124 194 184 100 48 26 2 0 0 0 0 0 0 0 0 0 0 0 0 0 0 0
1 10 0 0 0 1 18 14 20 8 0 0 0 0 0 0 0 0 0 0 0 0 0 0 0 30 86 265 1059 1190 1290 1230 949 803 592 556 498 576 657 703 573 692 731 803 842 844 776 812 781 411 256 343 315 298 500 483 452 363 352 274 211 0 0 0 28 152 137 82 28 0 0 0 0 0 0 0 0 0 0 0 0 0 0 0 0 0
14 16 0 3 0 3 17 18 5 0 0 333 41 75 28 0 0 0 0 0 0 0 0 0 0 0 49 563 768 893 997 1400 1048 844 529 444 464 414 482 418 444 512 674 732 766 693 696 370 520 350 94 128 286 277 271 360 339 300 259 238 0 0 0 0 94 127 78 21 0 0 0 0 0 0 0 0 0 0 0 0 0 0 0 0 0 0
1 2 4 7 0 7 5 7 0 0 186 97 597 332 548 21 0 0 0 1 2 0 0 0 0 0 22 240 304 526 835 1101 982 690 579 533 329 442 469 354 528 662 677 721 673 664 645 535 182 128 309 270 336 250 331 338 269 255 128 186 31 0 0 0 71 107 18 68 0 0 0 0 0 0 0 0 0 0 0 0 0 0 0 0 0 0
8 2 9 10 0 18 1 3 0 37 1 91 110 174 0 0 0 0 0 0 0 0 0 0 0 0 0 37 350 529 930 1019 926 537 517 589 461 415 249 183 410 522 679 654 642 621 432 119 176 240 219 175 183 200 322 266 246 184 206 138 0 0 0 23 71 59 44 21 0 0 0 0 0 0 0 0 0 0 0 0 0 0 0 0 0 0
19 8 4 23 1 2 1 2 0 0 0 0 0 0 0 0 0 0 0 0 0 0 0 0 0 0 0 0 641 1127 1080 921 765 528 521 551 483 318 200 49 226 432 525 614 671 677 363 197 178 253 291 240 144 262 264 237 216 153 22 0 0 2 49 33 33 11 4 0 0 0 0 0 0 0 0 0 0 0 0 0 0 0 0 0 0 0
16 3 11 0 12 0 3 8 1 0 0 185 3 0 41 168 154 45 0 0 0 0 0 0 0 0 0 72 1058 1142 954 687 640 644 494 379 516 342 250 186 269 433 496 564 611 540 404 235 243 248 235 235 256 245 222 205 77 0 0 0 0 34 9 6 0 0 0 0 0 0 0 0 0 0 0 0 0 0 0 0 0 0 0 0 0 0
12 6 7 15 0 4 4 0 13 3 2 187 593 391 448 276 339 100 0 0 0 0 0 0 0 0 0 1 968 1123 815 459 583 741 587 391 360 387 247 73 159 440 542 540 519 394 358 310 194 234 226 125 144 234 219 233 64 0 0 0 5 1 0 0 0 0 0 0 0 0 0 0 0 0 0 0 0 0 0 0 0 0 0 0 0 0
0 6 11 18 9 2 0 9 1 2 224 300 490 584 263 676 430 6 0 382 584 0 0 0 0 0 0 354 1125 993 830 308 238 801 511 297 212 114 153 163 262 484 555 537 540 554 375 261 206 206 166 204 221 225 216 27 0 0 0 0 0 1 0 0 0 0 0 0 0 0 0 0 0 0 0 0 0 0 0 0 0 0 0 0 0 0
0 1 2 4 17 17 12 0 3 7 349 470 334 446 592 415 27 16 659 351 1011 922 18 0 0 0 2 710 1154 898 707 519 768 566 409 263 186 206 188 173 278 458 547 362 383 320 276 237 270 261 229 230 238 231 49 0 0 0 0 0 0 0 0 0 0 0 0 0 0 0 0 0 0 0 0 0 0 0 0 0 0 0 0 0 0 0
0 0 0 0 0 11 4 1 0 3 140 653 430 388 443 57 182 374 944 702 211 830 844 310 0 0 79 1059 1085 627 584 814 675 545 381 200 159 132 0 230 418 527 641 566 329 292 328 329 304 295 293 294 239 58 1 0 0 3 14 8 1 0 0 0 0 0 0 0 0 0 0 0 0 0 0 0 0 0 0 0 0 0 0 0 0 0
10 0 0 0 0 0 0 0 0 33 318 579 292 20 408 267 856 920 904 878 561 680 686 683 199 322 811 1058 729 605 811 689 539 437 252 82 88 0 5 300 449 534 568 505 273 287 332 302 255 264 321 225 119 9 0 0 2 0 0 1 2 0 0 0 0 0 0 0 0 0 0 0 0 0 0 0 0 0 0 0 0 0 0 0 0 0
0 0 1 0 0 0 0 1 509 332 576 584 540 689 1064 868 717 790 877 689 834 768 724 637 870 1112 988 849 808 769 633 475 366 290 166 45 1 0 132 401 463 541 487 402 400 338 302 303 384 204 260 236 120 66 0 12 11 3 3 5 0 0 0 0 0 0 0 0 0 0 0 0 0 0 0 0 0 0 0 0 0 0 0 0 0 0
194 154 585 14 0 0 347 182 182 363 327 506 755 846 841 741 589 475 637 819 447 802 658 840 892 726 633 576 411 406 488 319 272 277 36 2 0 2 236 388 454 467 286 287 313 235 347 339 347 377 374 271 205 36 3 10 6 8 10 1 0 0 0 0 0 0 0 0 0 0 0 0 0 0 0 0 0 0 0 0 0 0 0 0 0 0
57 111 96 3 1 0 0 143 110 329 772 781 783 538 669 292 658 497 394 577 534 549 648 682 846 645 432 356 199 193 310 169 96 127 1 0 1 1 41 333 478 448 410 430 263 336 384 411 409 364 280 221 162 11 9 11 9 6 0 0 0 0 0 0 0 0 0 0 0 0 0 0 0 0 0 0 0 0 0 0 0 0 0 0 0 0
42 155 44 1 20 1 3 98 489 722 747 637 496 604 324 427 364 306 548 759 594 549 541 627 643 577 450 378 300 291 217 178 100 12 3 0 1 0 285 424 455 445 448 305 422 422 426 378 356 301 268 192 17 8 13 5 2 0 0 0 0 0 0 0 0 0 0 0 0 0 0 0 0 0 0 0 0 0 0 0 0 0 0 0 0 0
520 78 1 0 14 96 118 390 554 634 473 422 346 390 477 516 592 271 454 470 412 453 608 572 512 350 314 212 97 221 236 91 11 0 0 1 74 195 414 542 590 528 526 477 502 577 476 382 273 219 185 18 0 4 3 0 0 0 0 0 0 0 0 0 0 0 0 0 0 0 0 0 0 0 0 0 0 0 0 0 0 0 0 0 0 0
323 228 31 1 23 63 22 63 98 3 33 570 446 392 486 469 530 528 394 566 477 407 292 258 307 286 288 184 95 167 140 44 8 4 0 93 145 318 542 650 663 604 360 484 584 558 453 336 245 181 40 0 0 0 0 0 0 0 0 0 0 0 0 0 0 0 0 0 0 0 0 0 0 0 0 0 0 0 0 0 0 0 0 0 0 0
202 514 424 110 23 114 368 458 541 539 854 805 717 458 433 324 450 452 568 557 445 313 283 148 205 163 119 80 22 64 70 8 14 3 25 120 246 428 637 707 617 571 380 461 509 411 337 251 156 47 4 0 0 0 0 0 0 0 0 0 0 0 0 0 0 0 0 0 0 0 0 0 0 0 0 0 0 0 0 0 0 0 0 0 0 0
Wind_Speed
nan nan nan nan nan nan nan nan nan nan nan nan nan nan nan nan nan nan nan nan nan nan nan nan nan nan nan 41 38 40 33 31 30 27 28 27 31 34 37 31 25 29 32 30 34 37 36 35 34 35 34 34 37 38 35 38 42 37 29 23 23 27 27 23 21 20 21 21 22 22 20 12 7 15 14 17 18 16 16 16 15 15 13 13 12 13
nan nan nan nan nan nan nan nan nan nan nan nan nan nan nan nan nan nan nan nan nan nan nan nan nan nan nan 41 39 37 31 31 32 30 29 28 29 32 40 39 36 35 34 36 36 36 36 34 36 33 34 33 34 34 34 33 36 26 23 25 26 27 26 23 24 22 21 21 21 22 17 11 12 14 15 19 17 17 17 17 16 15 14 14 14 13
nan nan nan nan nan nan nan nan nan nan nan nan nan nan nan nan nan nan nan nan nan nan nan nan nan nan nan 44 36 32 29 32 31 29 29 28 30 29 36 35 34 33 29 30 32 32 33 35 37 33 34 31 30 29 30 31 29 24 23 20 21 22 26 25 26 20 17 18 19 16 10 10 18 20 20 19 18 17 17 17 16 16 15 14 14 14
nan nan nan nan nan nan nan nan nan nan nan nan nan nan nan nan nan nan nan nan nan nan nan nan nan 28 54 48 36 27 30 31 29 28 28 24 27 24 29 34 29 29 24 21 26 28 31 34 35 33 32 29 28 28 29 28 25 25 24 21 19 20 23 27 21 19 17 17 20 18 17 14 18 19 20 19 19 18 17 17 17 16 15 15 14 14
nan nan nan nan nan nan nan nan nan nan nan nan nan nan nan nan nan nan nan nan nan nan nan nan nan 30 40 47 36 27 27 29 30 29 26 22 23 23 27 28 25 22 19 21 26 29 30 34 32 29 30 30 28 29 29 26 25 28 26 25 26 23 21 19 19 20 21 21 17 12 18 19 20 20 19 18 18 17 16 16 17 16 15 16 15 14
nan nan nan nan nan nan nan nan nan nan nan nan nan nan nan nan nan nan nan nan nan nan nan nan nan nan 35 37 34 26 27 26 27 29 25 20 23 21 22 24 23 20 18 20 24 28 30 33 34 31 31 32 31 31 31 29 30 29 24 26 25 16 19 18 20 19 20 17 12 10 15 18 19 19 19 19 18 17 17 18 17 17 16 17 16 15
nan nan nan nan nan nan nan nan nan nan nan nan nan nan nan nan nan nan nan nan nan nan nan nan nan nan 30 35 27 23 25 25 26 27 23 19 19 19 18 20 20 18 19 21 24 25 29 32 32 30 29 32 33 34 35 36 32 28 20 22 22 19 18 20 18 14 14 11 15 19 19 20 19 19 20 19 19 19 17 17 18 18 17 16 17 16
nan nan nan nan nan nan nan nan nan nan nan nan nan nan nan nan nan nan nan nan nan nan nan nan nan nan nan nan 34 22 20 25 27 24 19 18 15 14 16 17 17 15 17 20 23 26 29 30 29 27 26 29 33 35 35 33 30 29 22 17 16 17 20 18 14 13 11 13 17 22 23 22 22 22 20 19 18 18 18 19 18 17 18 nan nan nan
nan nan nan nan nan nan nan nan nan nan nan nan nan nan nan nan nan nan nan nan nan nan nan nan nan nan nan 32 nan nan 20 22 25 22 16 14 13 13 16 18 17 15 15 18 22 25 29 29 29 26 25 29 30 27 29 31 32 29 23 18 15 20 19 14 12 14 18 20 21 21 20 21 21 20 19 18 18 18 19 20 19 19 nan nan nan nan
nan nan nan nan nan nan nan nan nan nan nan nan nan nan nan nan nan nan nan nan nan nan nan nan nan nan nan 37 36 24 19 23 21 20 15 13 13 15 18 16 18 17 17 21 23 27 27 27 26 26 26 26 23 22 26 30 30 25 20 18 18 16 15 14 17 20 23 24 23 22 21 21 19 17 19 19 19 19 19 20 19 19 nan nan nan nan
nan nan nan nan nan nan nan nan nan nan nan nan nan nan nan nan nan nan nan nan nan nan nan nan nan nan nan 34 34 28 20 23 23 22 18 13 14 14 12 18 17 21 22 25 24 26 26 26 27 25 24 26 26 26 29 30 28 25 20 23 20 20 20 19 22 23 23 22 22 21 21 22 21 21 20 19 20 19 19 19 nan nan nan nan nan nan
nan nan nan nan nan nan nan nan nan nan nan nan nan nan nan nan nan nan nan nan nan nan nan nan nan nan nan 37 34 30 23 20 20 nan 22 14 13 15 14 16 22 23 24 26 25 27 32 29 25 25 28 29 32 34 33 30 29 29 24 23 22 24 25 23 24 24 22 21 21 21 22 23 22 21 21 21 21 nan nan nan nan nan nan nan nan nan
nan nan nan nan nan nan nan nan nan nan nan nan nan nan nan nan nan nan nan nan nan nan nan nan nan nan nan nan 34 35 28 25 22 22 23 19 17 21 22 16 21 25 28 25 25 28 30 28 24 26 31 31 35 36 35 33 33 33 29 26 26 24 23 23 24 23 21 22 22 22 nan nan nan nan nan nan nan nan nan nan nan nan nan nan nan nan
nan nan nan nan nan nan nan nan nan nan nan nan nan nan nan nan nan nan nan nan nan nan nan nan nan nan nan nan nan 35 29 24 24 23 22 20 25 23 22 17 21 25 24 24 25 27 30 28 25 27 29 30 34 37 33 31 32 32 31 29 25 24 24 24 23 nan nan nan nan nan nan nan nan nan nan nan nan nan nan nan nan nan nan nan nan nan
nan nan nan nan nan nan nan nan nan nan nan nan nan nan nan nan nan nan nan nan nan nan nan nan nan nan nan nan nan nan nan nan nan 26 24 21 23 26 26 25 25 26 25 23 25 28 31 30 27 25 27 30 33 36 32 30 31 31 29 27 26 25 23 23 23 24 nan nan nan nan nan nan nan nan nan nan nan nan nan nan nan nan nan nan nan nan
nan nan nan nan nan nan nan nan nan nan nan nan nan nan nan nan nan nan nan nan nan nan nan nan nan nan nan 47 nan 43 41 nan 25 23 27 22 22 30 29 26 24 23 25 24 27 31 33 30 27 26 28 29 30 32 32 32 31 30 28 26 26 25 nan nan nan nan nan nan nan nan nan nan nan nan nan nan nan nan nan nan nan nan nan nan nan nan
nan nan nan nan nan nan nan nan nan nan nan nan nan nan nan nan nan nan nan nan nan nan nan nan nan nan 57 46 nan nan nan 33 nan 26 26 26 27 34 34 27 26 26 26 26 29 32 33 30 27 27 29 28 28 27 28 28 28 31 30 28 27 nan nan nan nan nan nan nan nan nan nan nan nan nan nan nan nan nan nan nan nan nan nan nan nan nan
nan nan nan nan nan nan nan nan nan nan nan nan nan nan nan nan nan nan nan nan nan nan nan nan nan nan nan nan 38 39 nan nan 32 nan 34 31 31 37 31 25 25 28 27 28 29 32 35 31 28 26 25 29 29 26 26 25 25 27 28 28 27 nan nan nan nan nan nan nan nan nan nan nan nan nan nan nan nan nan nan nan nan nan nan nan nan nan
nan nan nan nan nan nan nan nan nan nan nan nan nan nan nan nan nan nan nan nan nan nan nan nan nan nan nan 43 45 39 38 nan 34 40 39 32 33 32 29 27 29 31 29 28 32 33 31 27 26 26 27 30 28 24 24 25 23 23 25 nan nan nan nan nan nan nan nan nan nan nan nan nan nan nan nan nan nan nan nan nan nan nan nan nan nan nan
nan nan nan nan nan nan nan nan nan nan nan nan nan nan nan nan nan nan nan nan nan nan nan nan nan nan nan nan 46 43 35 38 35 38 34 32 31 30 27 28 32 31 29 31 33 32 29 24 24 27 28 28 24 24 24 25 24 26 27 29 nan nan nan nan nan nan nan nan nan nan nan nan nan nan nan nan nan nan nan nan nan nan nan nan nan nan
nan nan nan nan nan nan nan nan nan nan nan nan nan nan nan nan nan nan nan nan nan nan nan nan nan nan nan 42 47 43 37 35 35 36 36 33 30 33 29 31 32 31 31 33 34 32 28 23 22 26 27 26 24 25 26 26 28 28 28 30 30 29 nan nan nan nan nan nan nan nan nan nan nan nan nan nan nan nan nan nan nan nan nan nan nan nan
nan nan nan nan nan nan nan nan nan nan nan nan nan nan nan nan nan nan nan nan nan nan nan nan nan nan nan 40 41 44 38 36 35 35 35 35 32 36 34 34 33 31 33 34 32 32 27 24 25 27 27 27 28 29 29 nan nan nan nan nan nan 28 30 29 nan nan nan nan nan nan nan nan nan nan nan nan nan nan nan nan nan nan nan nan nan nan
nan nan nan nan nan nan nan nan nan nan nan nan nan nan nan nan nan nan nan nan nan nan nan nan nan nan nan 46 41 40 34 32 34 35 36 37 38 34 34 33 33 34 34 32 32 30 27 27 28 28 27 29 30 31 32 30 nan nan nan nan 25 27 30 30 29 nan nan nan nan nan nan nan nan nan nan nan nan nan nan nan nan nan nan nan nan nan
nan nan nan nan nan nan nan nan nan nan nan nan nan nan nan nan nan nan nan nan nan nan nan nan nan 37 nan 52 43 39 34 31 32 35 39 41 42 34 33 32 32 35 34 33 33 32 30 29 29 28 28 29 30 31 31 30 30 nan nan 26 26 28 30 29 27 27 nan nan nan nan nan nan nan nan nan nan nan nan nan nan nan nan nan nan nan nan
nan nan nan nan nan nan nan nan nan nan nan nan nan nan nan nan nan nan nan nan nan nan nan nan nan 34 39 44 49 40 36 33 32 35 37 43 42 33 30 31 31 33 34 33 34 35 32 29 29 28 28 30 31 nan 31 30 31 nan 31 31 30 29 nan 28 nan 27 nan nan nan nan nan nan nan nan nan nan nan nan nan nan nan nan nan nan nan nan
nan nan nan nan nan nan nan nan nan nan nan nan nan nan nan nan nan nan nan nan nan nan nan nan nan 48 41 34 35 34 33 35 37 39 43 46 39 34 29 30 30 33 33 34 35 35 33 30 30 30 29 29 31 32 31 30 31 32 33 34 nan nan nan nan nan nan nan nan nan nan nan nan nan nan nan nan nan nan nan nan nan nan nan nan nan nan
nan nan nan nan nan nan nan nan nan nan nan nan nan nan nan nan nan nan nan nan nan nan nan nan 39 51 46 36 32 33 32 40 40 41 46 41 38 33 30 29 29 31 32 33 33 32 32 31 32 32 30 29 31 31 31 nan 32 33 33 nan nan nan nan nan nan nan nan nan nan nan nan nan nan nan nan nan nan nan nan nan nan nan nan nan nan nan
nan nan nan nan nan nan nan nan nan nan nan nan nan nan nan nan nan nan nan nan nan nan nan nan 41 43 45 39 37 31 28 36 35 37 35 36 34 33 30 31 31 33 34 33 32 32 32 33 33 33 32 31 30 30 nan nan 31 30 nan 27 25 25 nan nan nan 25 27 nan nan nan nan nan nan nan nan nan nan nan nan nan nan nan nan nan nan nan
nan nan nan nan nan nan nan nan nan nan nan nan nan nan nan nan nan nan nan nan nan nan nan nan 32 nan 38 35 36 31 29 36 36 36 34 34 33 32 31 30 30 32 32 33 32 31 33 34 33 33 32 31 30 30 31 nan 30 28 nan 26 23 22 22 nan nan nan nan nan nan nan nan nan nan nan nan nan nan nan nan nan nan nan nan nan nan nan
nan nan nan nan nan nan nan nan nan nan nan nan nan nan nan nan nan nan nan nan nan nan nan nan nan nan nan 41 35 35 41 44 40 38 36 33 31 30 28 27 28 29 30 31 31 31 34 36 35 35 35 33 32 33 32 32 30 nan 28 25 21 20 20 nan nan 24 26 nan nan nan nan nan nan nan nan nan nan nan nan nan nan nan nan nan nan nan
nan nan nan nan nan nan nan nan nan nan nan nan nan nan nan nan nan nan nan nan nan nan nan nan nan nan nan 37 38 45 46 38 36 33 32 30 28 26 24 24 25 26 28 31 33 35 38 38 38 38 38 38 36 32 32 31 29 28 26 21 20 19 19 21 23 25 28 nan nan nan nan nan nan nan nan nan nan nan nan nan nan nan nan nan nan nan
nan nan nan nan nan nan nan nan nan nan nan nan nan nan nan nan nan nan nan nan nan nan nan nan nan nan nan 34 34 36 41 33 25 25 27 23 22 23 23 23 22 24 28 33 39 40 39 40 41 41 39 35 33 32 32 32 30 27 25 22 21 21 21 24 25 28 30 nan nan nan nan nan nan nan nan nan nan nan nan nan nan nan nan nan nan nan
nan nan nan nan nan nan nan nan nan nan nan nan nan nan nan nan nan nan nan nan nan nan nan nan nan nan nan nan 39 39 37 30 21 19 20 20 19 20 21 22 23 26 30 37 39 39 40 41 40 40 37 35 35 35 34 32 30 27 25 22 22 23 25 nan 29 31 33 33 nan nan nan nan nan nan nan nan nan nan nan nan nan nan nan nan nan nan
nan nan nan nan nan nan nan nan nan nan nan nan nan nan nan nan nan nan nan nan nan nan nan nan nan nan nan 34 42 32 28 25 24 22 20 20 21 20 20 22 24 30 39 39 37 37 38 38 38 39 40 39 37 37 35 31 28 26 24 24 24 nan nan nan nan 34 35 nan nan nan nan nan nan nan nan nan nan nan nan nan nan nan nan nan nan nan
nan nan nan nan nan nan nan nan nan nan nan 37 nan nan nan nan nan nan nan nan nan nan nan nan nan nan nan 34 35 29 27 30 33 31 27 24 21 20 21 23 26 36 37 36 35 35 37 40 42 43 nan 40 38 36 33 31 27 24 23 24 nan nan nan nan nan 36 nan nan nan nan nan nan nan nan nan nan nan nan nan nan nan nan nan nan nan nan
nan nan nan nan nan nan nan nan nan nan 34 nan 35 36 37 nan nan nan nan nan nan nan nan nan nan nan nan 32 34 31 30 32 33 32 29 27 24 22 22 24 32 32 32 31 35 38 42 44 46 45 38 35 35 34 30 27 25 24 25 27 nan nan nan nan nan 37 nan nan nan nan nan nan nan nan nan nan nan nan nan nan nan nan nan nan nan nan
nan nan nan nan nan nan nan nan nan nan nan nan 24 27 nan nan nan nan nan nan nan nan nan nan nan nan nan nan 30 32 31 29 32 33 30 28 26 25 22 28 31 30 31 32 36 41 44 43 39 38 35 32 29 27 25 24 25 26 27 28 nan nan nan nan nan nan nan nan nan nan nan nan nan nan nan nan nan nan nan nan nan nan nan nan nan nan
nan nan nan nan nan nan nan nan nan nan nan nan nan nan nan nan nan nan nan nan nan nan nan nan nan nan nan nan 37 34 30 28 29 30 29 26 26 26 27 nan 29 30 31 34 36 40 40 38 37 38 36 33 28 24 23 25 26 27 nan nan nan nan nan nan nan nan nan nan nan nan nan nan nan nan nan nan nan nan nan nan nan nan nan nan nan nan
nan nan nan nan nan nan nan nan nan nan nan 32 nan nan nan 27 27 nan nan nan nan nan nan nan nan nan nan nan 38 33 28 25 25 28 26 23 24 27 32 27 27 28 31 33 36 39 40 39 38 34 31 29 28 26 25 25 nan nan nan nan nan nan nan nan nan nan nan nan nan nan nan nan nan nan nan nan nan nan nan nan nan nan nan nan nan nan
nan nan nan nan nan nan nan nan nan nan nan 26 29 25 25 26 28 nan nan nan nan nan nan nan nan nan nan nan 33 28 26 26 25 25 25 22 23 26 29 nan 27 28 31 33 34 37 39 38 36 32 29 28 27 26 25 26 nan nan nan nan nan nan nan nan nan nan nan nan nan nan nan nan nan nan nan nan nan nan nan nan nan nan nan nan nan nan
nan nan nan nan nan nan nan nan nan nan 24 22 23 25 26 26 24 nan nan 37 42 nan nan nan nan nan nan 32 29 25 25 29 30 29 27 27 26 28 28 30 27 29 32 32 32 33 33 32 33 34 32 29 27 25 26 nan nan nan nan nan nan nan nan nan nan nan nan nan nan nan nan nan nan nan nan nan nan nan nan nan nan nan nan nan nan nan
nan nan nan nan nan nan nan nan nan nan 23 22 23 24 25 23 nan nan 33 32 35 35 nan nan nan nan nan 27 25 25 31 36 39 35 30 27 30 33 32 32 32 31 32 33 33 33 32 31 33 35 33 29 27 28 nan nan nan nan nan nan nan nan nan nan nan nan nan nan nan nan nan nan nan nan nan nan nan nan nan nan nan nan nan nan nan nan
nan nan nan nan nan nan nan nan nan nan 18 16 21 21 20 nan 27 30 28 31 30 30 26 23 nan nan nan 27 28 31 36 40 37 34 30 31 33 32 nan 34 34 34 34 35 33 31 32 33 34 34 32 29 29 nan nan nan nan nan nan nan nan nan nan nan nan nan nan nan nan nan nan nan nan nan nan nan nan nan nan nan nan nan nan nan nan nan
nan nan nan nan nan nan nan nan nan nan 22 11 14 nan 18 24 29 31 28 27 29 27 25 25 23 25 28 27 29 33 39 38 34 31 31 nan nan nan nan 35 36 36 34 31 31 31 33 34 33 32 31 29 28 nan nan nan nan nan nan nan nan nan nan nan nan nan nan nan nan nan nan nan nan nan nan nan nan nan nan nan nan nan nan nan nan nan
nan nan nan nan nan nan nan nan 31 23 22 19 23 24 28 26 28 31 31 29 26 28 27 25 26 29 28 29 30 33 34 34 31 28 31 nan nan nan 30 32 34 34 33 31 31 32 33 34 33 31 30 29 30 nan nan nan nan nan nan nan nan nan nan nan nan nan nan nan nan nan nan nan nan nan nan nan nan nan nan nan nan nan nan nan nan nan
12 13 19 nan nan nan 26 29 25 25 21 27 25 25 26 26 26 26 28 27 28 28 26 24 23 22 24 24 27 26 31 31 29 28 nan nan nan nan 29 32 32 33 33 34 33 33 35 34 34 32 31 31 32 nan nan nan nan nan nan nan nan nan nan nan nan nan nan nan nan nan nan nan nan nan nan nan nan nan nan nan nan nan nan nan nan nan
nan 12 nan nan nan nan nan 22 20 23 27 27 27 25 27 27 28 25 23 25 26 26 25 26 21 19 21 18 24 23 31 29 nan 29 nan nan nan nan nan 30 30 32 33 34 34 36 35 34 32 31 32 34 33 nan nan nan nan nan nan nan nan nan nan nan nan nan nan nan nan nan nan nan nan nan nan nan nan nan nan nan nan nan nan nan nan nan
nan 16 nan nan nan nan nan nan 24 26 27 27 26 25 23 26 28 26 26 25 25 25 24 24 22 20 19 23 25 22 26 27 25 nan nan nan nan nan 27 30 34 35 35 37 37 35 35 33 32 32 34 34 nan nan nan nan nan nan nan nan nan nan nan nan nan nan nan nan nan nan nan nan nan nan nan nan nan nan nan nan nan nan nan nan nan nan
25 nan nan nan nan nan 16 21 24 24 22 23 25 25 28 28 28 28 27 26 25 25 29 28 23 22 22 24 nan 21 23 nan nan nan nan nan nan 25 27 30 35 37 38 39 37 34 32 30 32 34 34 nan nan nan nan nan nan nan nan nan nan nan nan nan nan nan nan nan nan nan nan nan nan nan nan nan nan nan nan nan nan nan nan nan nan nan
18 17 nan nan nan nan nan nan nan nan nan 23 24 23 24 27 28 28 26 26 27 28 26 24 24 22 21 23 nan 21 22 nan nan nan nan nan 25 26 28 30 33 36 37 35 32 30 29 31 34 35 nan nan nan nan nan nan nan nan nan nan nan nan nan nan nan nan nan nan nan nan nan nan nan nan nan nan nan nan nan nan nan nan nan nan nan nan
23 27 27 22 nan 21 26 24 27 27 25 29 27 25 23 24 24 24 25 26 26 27 24 25 23 21 20 nan nan nan nan nan nan nan nan 26 26 27 29 32 33 33 33 30 28 29 31 34 34 nan nan nan nan nan nan nan nan nan nan nan nan nan nan nan nan nan nan nan nan nan nan nan nan nan nan nan nan nan nan nan nan nan nan nan nan nan
Wind_Direction
nan nan nan nan nan nan nan nan nan nan nan nan nan nan nan nan nan nan nan nan nan nan nan nan nan nan nan 253 253 256 261 261 265 258 249 246 250 247 248 248 240 246 246 253 253 252 257 257 260 264 253 235 226 230 231 228 226 225 231 239 236 237 240 235 240 240 244 242 247 245 234 231 241 268 264 261 263 267 267 271 273 277 277 276 275 274
nan nan nan nan nan nan nan nan nan nan nan nan nan nan nan nan nan nan nan nan nan nan nan nan nan nan nan 256 255 253 257 252 254 260 259 258 249 249 257 246 234 230 238 241 244 251 255 257 262 258 256 247 241 245 247 238 236 233 235 224 236 233 239 240 237 237 231 236 238 239 229 197 246 243 259 261 262 269 269 270 271 272 273 274 275 274
nan nan nan nan nan nan nan nan nan nan nan nan nan nan nan nan nan nan nan nan nan nan nan nan nan nan nan 254 251 252 251 245 245 253 261 265 263 247 257 265 258 246 237 239 245 252 256 265 266 262 255 244 239 254 257 252 249 251 238 233 232 230 236 233 233 230 233 234 226 229 222 236 243 248 249 254 263 268 270 268 268 269 270 270 273 272
nan nan nan nan nan nan nan nan nan nan nan nan nan nan nan nan nan nan nan nan nan nan nan nan nan 231 240 247 245 243 245 246 242 248 254 254 266 261 258 272 260 250 255 259 260 261 261 265 262 259 252 246 247 256 254 244 242 239 235 236 232 225 228 227 230 227 226 225 218 205 248 247 252 254 255 259 261 262 264 268 266 269 270 272 274 271
nan nan nan nan nan nan nan nan nan nan nan nan nan nan nan nan nan nan nan nan nan nan nan nan nan 242 240 246 247 242 244 249 248 252 257 246 246 253 218 269 285 278 272 270 269 263 261 261 260 261 254 250 251 255 254 249 240 232 230 230 230 217 220 208 221 216 217 216 221 226 246 246 248 249 252 256 259 257 262 269 270 269 269 271 273 275
nan nan nan nan nan nan nan nan nan nan nan nan nan nan nan nan nan nan nan nan nan nan nan nan nan nan 247 247 247 245 243 247 248 251 255 252 254 249 249 250 254 263 268 269 265 262 258 256 260 263 263 256 256 256 257 253 243 234 234 230 234 228 226 229 222 218 207 197 226 245 249 248 250 250 251 254 258 264 261 264 269 271 271 272 275 277
nan nan nan nan nan nan nan nan nan nan nan nan nan nan nan nan nan nan nan nan nan nan nan nan nan nan 253 257 245 244 249 253 247 248 252 254 254 254 249 252 258 264 265 264 265 267 262 255 260 262 260 257 258 258 260 256 252 245 236 232 218 229 237 220 209 204 184 222 236 237 239 241 243 249 248 251 255 259 261 265 266 269 269 269 273 273
nan nan nan nan nan nan nan nan nan nan nan nan nan nan nan nan nan nan nan nan nan nan nan nan nan nan nan nan 267 249 250 255 247 242 244 248 254 268 260 255 256 257 262 265 267 262 256 257 259 260 261 259 259 260 262 260 256 253 247 235 215 205 214 196 197 191 243 248 243 244 245 243 245 249 254 257 258 259 263 264 264 268 271 nan nan nan
nan nan nan nan nan nan nan nan nan nan nan nan nan nan nan nan nan nan nan nan nan nan nan nan nan nan nan 259 nan nan 254 259 256 245 244 250 247 257 264 253 254 254 261 262 260 260 264 265 267 266 260 258 262 262 263 260 252 245 240 235 217 207 207 220 225 244 247 246 248 247 250 251 249 255 259 260 262 263 263 264 265 266 nan nan nan nan
nan nan nan nan nan nan nan nan nan nan nan nan nan nan nan nan nan nan nan nan nan nan nan nan nan nan nan 250 254 261 259 263 265 265 249 247 244 249 262 261 261 260 259 265 259 263 269 279 279 265 257 260 260 265 268 262 254 250 235 231 232 221 218 222 250 252 249 248 248 250 251 254 257 258 259 259 260 261 264 265 266 268 nan nan nan nan
nan nan nan nan nan nan nan nan nan nan nan nan nan nan nan nan nan nan nan nan nan nan nan nan nan nan nan 253 257 253 254 255 259 267 259 248 245 249 259 271 269 262 259 259 266 271 275 279 279 274 269 269 264 269 274 263 252 245 229 231 237 244 250 255 250 248 248 247 247 248 249 252 254 256 256 260 260 261 264 268 nan nan nan nan nan nan
nan nan nan nan nan nan nan nan nan nan nan nan nan nan nan nan nan nan nan nan nan nan nan nan nan nan nan 243 253 256 263 269 262 nan 280 280 274 261 250 254 262 266 266 271 275 279 277 281 289 282 272 266 266 276 278 266 256 249 230 235 244 249 250 251 246 243 240 242 244 247 250 247 246 251 255 256 261 nan nan nan nan nan nan nan nan nan
nan nan nan nan nan nan nan nan nan nan nan nan nan nan nan nan nan nan nan nan nan nan nan nan nan nan nan nan 253 265 263 270 269 265 271 275 275 265 244 236 257 263 271 275 279 276 278 286 294 282 273 270 271 275 279 272 260 256 252 251 254 258 257 248 244 245 243 242 246 250 nan nan nan nan nan nan nan nan nan nan nan nan nan nan nan nan
nan nan nan nan nan nan nan nan nan nan nan nan nan nan nan nan nan nan nan nan nan nan nan nan nan nan nan nan nan 257 257 261 267 264 266 266 263 263 274 262 255 262 272 276 279 275 278 281 278 275 274 276 276 277 276 271 266 263 261 259 258 255 248 246 246 nan nan nan nan nan nan nan nan nan nan nan nan nan nan nan nan nan nan nan nan nan
nan nan nan nan nan nan nan nan nan nan nan nan nan nan nan nan nan nan nan nan nan nan nan nan nan nan nan nan nan nan nan nan nan 260 258 258 264 266 263 262 262 265 268 273 274 274 275 272 279 285 284 282 278 278 277 274 269 268 266 260 257 257 254 253 252 250 nan nan nan nan nan nan nan nan nan nan nan nan nan nan nan nan nan nan nan nan
nan nan nan nan nan nan nan nan nan nan nan nan nan nan nan nan nan nan nan nan nan nan nan nan nan nan nan 222 nan 240 247 nan 254 262 263 262 259 263 263 264 267 267 265 269 273 271 272 281 289 285 283 283 284 282 276 272 270 267 265 260 258 257 nan nan nan nan nan nan nan nan nan nan nan nan nan nan nan nan nan nan nan nan nan nan nan nan
nan nan nan nan nan nan nan nan nan nan nan nan nan nan nan nan nan nan nan nan nan nan nan nan nan nan 227 230 nan nan nan 251 nan 260 268 266 262 261 256 267 273 268 270 272 272 275 279 278 273 275 280 283 285 281 273 271 271 272 268 263 259 nan nan nan nan nan nan nan nan nan nan nan nan nan nan nan nan nan nan nan nan nan nan nan nan nan
nan nan nan nan nan nan nan nan nan nan nan nan nan nan nan nan nan nan nan nan nan nan nan nan nan nan nan nan 240 244 nan nan 256 nan 259 262 261 260 268 274 273 267 271 273 270 267 273 277 282 279 277 280 279 276 270 269 273 270 266 262 258 nan nan nan nan nan nan nan nan nan nan nan nan nan nan nan nan nan nan nan nan nan nan nan nan nan
nan nan nan nan nan nan nan nan nan nan nan nan nan nan nan nan nan nan nan nan nan nan nan nan nan nan nan 238 246 247 249 nan 257 257 258 261 263 264 271 278 271 268 270 272 269 272 278 285 289 286 281 278 277 273 267 268 272 270 264 nan nan nan nan nan nan nan nan nan nan nan nan nan nan nan nan nan nan nan nan nan nan nan nan nan nan nan
nan nan nan nan nan nan nan nan nan nan nan nan nan nan nan nan nan nan nan nan nan nan nan nan nan nan nan nan 253 253 253 257 259 263 263 267 268 265 271 268 266 269 274 274 272 276 281 286 285 282 278 275 271 267 263 265 269 272 263 256 nan nan nan nan nan nan nan nan nan nan nan nan nan nan nan nan nan nan nan nan nan nan nan nan nan nan
nan nan nan nan nan nan nan nan nan nan nan nan nan nan nan nan nan nan nan nan nan nan nan nan nan nan nan 245 254 255 257 257 258 262 263 265 267 265 267 266 265 270 270 271 274 275 282 283 276 273 273 273 268 263 259 261 269 271 265 258 254 252 nan nan nan nan nan nan nan nan nan nan nan nan nan nan nan nan nan nan nan nan nan nan nan nan
nan nan nan nan nan nan nan nan nan nan nan nan nan nan nan nan nan nan nan nan nan nan nan nan nan nan nan 248 249 254 253 255 257 261 261 264 264 260 255 261 267 267 269 272 271 273 276 277 271 269 267 270 268 268 266 nan nan nan nan nan nan 253 252 255 nan nan nan nan nan nan nan nan nan nan nan nan nan nan nan nan nan nan nan nan nan nan
nan nan nan nan nan nan nan nan nan nan nan nan nan nan nan nan nan nan nan nan nan nan nan nan nan nan nan 244 245 254 253 253 255 254 256 262 259 256 257 258 263 266 269 268 269 268 270 269 268 268 270 274 275 276 277 275 nan nan nan nan 254 254 255 256 259 nan nan nan nan nan nan nan nan nan nan nan nan nan nan nan nan nan nan nan nan nan
nan nan nan nan nan nan nan nan nan nan nan nan nan nan nan nan nan nan nan nan nan nan nan nan nan 231 nan 243 246 254 254 250 249 253 253 257 258 257 260 260 264 262 264 267 266 262 255 262 268 270 274 275 274 276 276 273 271 nan nan 261 263 262 259 260 261 262 nan nan nan nan nan nan nan nan nan nan nan nan nan nan nan nan nan nan nan nan
nan nan nan nan nan nan nan nan nan nan nan nan nan nan nan nan nan nan nan nan nan nan nan nan nan 230 238 237 236 239 258 256 256 257 256 257 259 262 262 261 255 261 264 267 269 267 265 266 271 272 275 276 277 nan 275 273 269 nan 262 266 269 263 nan 257 nan 262 nan nan nan nan nan nan nan nan nan nan nan nan nan nan nan nan nan nan nan nan
nan nan nan nan nan nan nan nan nan nan nan nan nan nan nan nan nan nan nan nan nan nan nan nan nan 234 242 240 250 250 261 258 255 257 254 254 261 265 261 263 261 264 264 268 270 268 269 269 269 272 274 277 279 277 274 269 266 263 263 267 nan nan nan nan nan nan nan nan nan nan nan nan nan nan nan nan nan nan nan nan nan nan nan nan nan nan
nan nan nan nan nan nan nan nan nan nan nan nan nan nan nan nan nan nan nan nan nan nan nan nan 230 240 244 247 249 242 251 256 256 252 257 255 258 260 261 257 256 259 262 268 267 266 267 269 272 273 275 275 274 272 267 nan 269 269 266 nan nan nan nan nan nan nan nan nan nan nan nan nan nan nan nan nan nan nan nan nan nan nan nan nan nan nan
nan nan nan nan nan nan nan nan nan nan nan nan nan nan nan nan nan nan nan nan nan nan nan nan 236 241 242 248 251 255 256 258 258 259 260 256 256 259 255 252 253 252 252 255 261 267 269 270 271 271 271 270 270 269 nan nan 269 271 nan 271 272 277 nan nan nan 277 275 nan nan nan nan nan nan nan nan nan nan nan nan nan nan nan nan nan nan nan
nan nan nan nan nan nan nan nan nan nan nan nan nan nan nan nan nan nan nan nan nan nan nan nan 241 nan 247 246 252 254 255 254 261 261 260 258 256 251 248 255 260 263 262 262 261 263 268 267 267 269 269 269 272 270 268 nan 267 270 nan 268 272 280 285 nan nan nan nan nan nan nan nan nan nan nan nan nan nan nan nan nan nan nan nan nan nan nan
nan nan nan nan nan nan nan nan nan nan nan nan nan nan nan nan nan nan nan nan nan nan nan nan nan nan nan 247 251 256 247 248 250 251 253 258 260 255 254 256 258 257 259 261 263 263 265 266 265 264 266 267 268 268 269 267 266 nan 270 271 274 280 282 nan nan 279 280 nan nan nan nan nan nan nan nan nan nan nan nan nan nan nan nan nan nan nan
nan nan nan nan nan nan nan nan nan nan nan nan nan nan nan nan nan nan nan nan nan nan nan nan nan nan nan 247 244 250 251 252 254 253 252 253 256 257 258 258 257 256 257 260 256 250 251 256 256 258 257 261 263 268 270 270 268 267 270 272 275 277 279 278 280 281 281 nan nan nan nan nan nan nan nan nan nan nan nan nan nan nan nan nan nan nan
nan nan nan nan nan nan nan nan nan nan nan nan nan nan nan nan nan nan nan nan nan nan nan nan nan nan nan 246 249 252 252 258 260 255 250 253 263 264 264 261 256 258 259 253 249 251 252 254 256 259 261 262 268 270 270 268 268 270 273 274 276 276 276 278 281 282 283 nan nan nan nan nan nan nan nan nan nan nan nan nan nan nan nan nan nan nan
nan nan nan nan nan nan nan nan nan nan nan nan nan nan nan nan nan nan nan nan nan nan nan nan nan nan nan nan 248 253 259 256 256 262 258 257 262 264 264 262 260 255 252 247 252 252 255 258 261 266 269 269 266 262 263 265 263 266 272 276 276 276 277 nan 281 283 286 288 nan nan nan nan nan nan nan nan nan nan nan nan nan nan nan nan nan nan
nan nan nan nan nan nan nan nan nan nan nan nan nan nan nan nan nan nan nan nan nan nan nan nan nan nan nan 242 248 250 257 254 256 265 259 254 255 254 251 257 258 249 243 245 250 257 259 259 263 267 269 267 262 257 256 258 258 261 269 273 275 nan nan nan nan 285 287 nan nan nan nan nan nan nan nan nan nan nan nan nan nan nan nan nan nan nan
nan nan nan nan nan nan nan nan nan nan nan 220 nan nan nan nan nan nan nan nan nan nan nan nan nan nan nan 233 243 245 247 244 247 253 254 253 254 253 258 258 255 247 253 256 256 255 256 257 260 262 nan 262 259 253 251 250 253 262 268 273 nan nan nan nan nan 281 nan nan nan nan nan nan nan nan nan nan nan nan nan nan nan nan nan nan nan nan
nan nan nan nan nan nan nan nan nan nan 223 nan 222 220 220 nan nan nan nan nan nan nan nan nan nan nan nan 236 242 241 239 242 242 242 245 248 249 250 256 256 250 256 260 259 253 249 250 253 257 258 256 255 256 255 247 246 256 266 271 272 nan nan nan nan nan 283 nan nan nan nan nan nan nan nan nan nan nan nan nan nan nan nan nan nan nan nan
nan nan nan nan nan nan nan nan nan nan nan nan 225 223 nan nan nan nan nan nan nan nan nan nan nan nan nan nan 238 244 246 245 241 237 241 246 249 252 258 255 255 257 256 252 247 248 248 254 262 268 265 262 261 255 249 255 266 274 279 282 nan nan nan nan nan nan nan nan nan nan nan nan nan nan nan nan nan nan nan nan nan nan nan nan nan nan
nan nan nan nan nan nan nan nan nan nan nan nan nan nan nan nan nan nan nan nan nan nan nan nan nan nan nan nan 246 247 251 246 237 235 240 244 251 255 254 nan 259 260 260 255 251 255 259 262 269 274 268 266 264 262 264 270 276 281 nan nan nan nan nan nan nan nan nan nan nan nan nan nan nan nan nan nan nan nan nan nan nan nan nan nan nan nan
nan nan nan nan nan nan nan nan nan nan nan 211 nan nan nan 228 228 nan nan nan nan nan nan nan nan nan nan nan 249 251 248 239 233 236 241 246 250 253 256 262 264 267 267 264 263 263 264 263 266 267 264 260 266 273 276 279 nan nan nan nan nan nan nan nan nan nan nan nan nan nan nan nan nan nan nan nan nan nan nan nan nan nan nan nan nan nan
nan nan nan nan nan nan nan nan nan nan nan 229 230 229 233 228 229 nan nan nan nan nan nan nan nan nan nan nan 252 248 243 233 234 237 248 251 252 254 259 nan 263 267 267 260 259 266 271 272 273 272 270 273 278 282 283 283 nan nan nan nan nan nan nan nan nan nan nan nan nan nan nan nan nan nan nan nan nan nan nan nan nan nan nan nan nan nan
nan nan nan nan nan nan nan nan nan nan 225 233 233 231 231 230 228 nan nan 223 214 nan nan nan nan nan nan 250 253 245 239 228 225 253 256 254 252 251 251 251 258 262 260 259 266 267 268 270 271 273 278 280 283 279 278 nan nan nan nan nan nan nan nan nan nan nan nan nan nan nan nan nan nan nan nan nan nan nan nan nan nan nan nan nan nan nan
nan nan nan nan nan nan nan nan nan nan 217 224 230 233 232 229 nan nan 225 214 217 218 nan nan nan nan nan 253 248 237 235 234 244 258 258 258 253 247 249 248 246 249 254 257 261 264 264 266 269 272 275 277 277 275 nan nan nan nan nan nan nan nan nan nan nan nan nan nan nan nan nan nan nan nan nan nan nan nan nan nan nan nan nan nan nan nan
nan nan nan nan nan nan nan nan nan nan 211 215 239 232 224 nan 209 213 217 225 217 222 220 227 nan nan nan 245 240 234 236 241 253 256 258 257 256 253 nan 252 252 254 259 261 264 264 265 263 266 270 272 272 273 nan nan nan nan nan nan nan nan nan nan nan nan nan nan nan nan nan nan nan nan nan nan nan nan nan nan nan nan nan nan nan nan nan
nan nan nan nan nan nan nan nan nan nan 225 234 224 nan 216 205 208 207 205 221 220 217 224 223 222 236 241 239 237 237 243 248 248 250 254 nan nan nan nan 257 256 255 262 262 263 265 263 263 267 269 269 267 271 nan nan nan nan nan nan nan nan nan nan nan nan nan nan nan nan nan nan nan nan nan nan nan nan nan nan nan nan nan nan nan nan nan
nan nan nan nan nan nan nan nan 218 209 228 232 220 217 215 211 207 207 208 212 212 216 215 219 223 234 235 238 236 239 246 250 250 252 254 nan nan nan 261 264 259 259 260 260 261 262 262 266 271 268 267 266 273 nan nan nan nan nan nan nan nan nan nan nan nan nan nan nan nan nan nan nan nan nan nan nan nan nan nan nan nan nan nan nan nan nan
219 171 197 nan nan nan 219 220 219 218 225 234 225 220 219 214 210 200 203 208 211 212 211 214 225 229 234 234 237 237 247 253 253 253 nan nan nan nan 259 256 256 256 257 257 257 258 259 262 264 265 268 273 277 nan nan nan nan nan nan nan nan nan nan nan nan nan nan nan nan nan nan nan nan nan nan nan nan nan nan nan nan nan nan nan nan nan
nan 198 nan nan nan nan nan 223 211 214 217 223 224 225 217 210 212 208 205 206 211 212 212 215 224 227 232 230 237 237 252 254 nan 249 nan nan nan nan nan 255 256 257 259 257 255 258 260 262 263 267 271 276 279 nan nan nan nan nan nan nan nan nan nan nan nan nan nan nan nan nan nan nan nan nan nan nan nan nan nan nan nan nan nan nan nan nan
nan 220 nan nan nan nan nan nan 217 219 215 216 214 220 214 215 214 211 209 211 215 217 214 217 224 234 233 235 239 243 249 248 250 nan nan nan nan nan 256 254 252 251 252 254 254 256 257 260 265 271 276 278 nan nan nan nan nan nan nan nan nan nan nan nan nan nan nan nan nan nan nan nan nan nan nan nan nan nan nan nan nan nan nan nan nan nan
207 nan nan nan nan nan 204 209 213 218 216 214 215 214 215 218 218 217 213 217 220 223 224 225 226 234 241 245 nan 238 245 nan nan nan nan nan nan 257 255 252 250 251 253 255 254 251 251 260 269 275 278 nan nan nan nan nan nan nan nan nan nan nan nan nan nan nan nan nan nan nan nan nan nan nan nan nan nan nan nan nan nan nan nan nan nan nan
198 194 nan nan nan nan nan nan nan nan nan 218 218 219 222 219 215 219 217 220 225 228 229 229 229 234 241 248 nan 238 243 nan nan nan nan nan 256 261 257 254 254 255 254 252 247 249 257 268 275 278 nan nan nan nan nan nan nan nan nan nan nan nan nan nan nan nan nan nan nan nan nan nan nan nan nan nan nan nan nan nan nan nan nan nan nan nan
199 193 191 187 nan 197 198 203 198 197 209 206 212 217 218 215 212 216 218 220 225 226 224 226 230 232 238 nan nan nan nan nan nan nan nan 248 252 254 253 255 255 253 253 254 256 264 272 275 277 nan nan nan nan nan nan nan nan nan nan nan nan nan nan nan nan nan nan nan nan nan nan nan nan nan nan nan nan nan nan nan nan nan nan nan nan nan